Time,TemperatureF,DewpointF,PressureIn,WindDirection,WindDirectionDegrees,WindSpeedMPH,WindSpeedGustMPH,Humidity,HourlyPrecipIn,Conditions,Clouds,dailyrainin,SoftwareType,DateUTC
2013-02-17 00:01:00,28.0,17.8,30.26,NW,311,0.0,8.0,65,0.00,,,0.00,meteohub,2013-02-17 06:01:00,
2013-02-17 00:06:00,28.0,17.8,30.26,NW,322,3.0,8.0,65,0.00,,,0.00,meteohub,2013-02-17 06:06:00,
2013-02-17 00:11:00,27.9,17.6,30.26,NNW,344,0.0,5.0,65,0.00,,,0.00,meteohub,2013-02-17 06:11:00,
2013-02-17 00:16:00,27.9,18.0,30.26,NW,326,0.0,8.0,66,0.00,,,0.00,meteohub,2013-02-17 06:16:00,
2013-02-17 00:21:00,27.9,17.6,30.26,NW,326,2.0,8.0,65,0.00,,,0.00,meteohub,2013-02-17 06:21:00,
2013-02-17 00:26:00,27.7,17.8,30.26,WNW,300,2.0,6.0,66,0.00,,,0.00,meteohub,2013-02-17 06:26:00,
2013-02-17 00:31:00,27.7,17.8,30.26,NW,312,0.0,6.0,66,0.00,,,0.00,meteohub,2013-02-17 06:31:00,
2013-02-17 00:36:00,27.5,17.6,30.26,WNW,282,0.0,6.0,66,0.00,,,0.00,meteohub,2013-02-17 06:36:00,
2013-02-17 00:41:00,27.3,17.4,30.26,NW,322,0.0,6.0,66,0.00,,,0.00,meteohub,2013-02-17 06:41:00,
2013-02-17 00:46:00,27.3,17.4,30.26,NNW,345,2.0,6.0,66,0.00,,,0.00,meteohub,2013-02-17 06:46:00,
2013-02-17 00:52:00,27.3,17.4,30.27,NNW,345,2.0,6.0,66,0.00,,,0.00,meteohub,2013-02-17 06:52:00,
2013-02-17 00:57:00,27.1,17.2,30.26,North,350,0.0,5.0,66,0.00,,,0.00,meteohub,2013-02-17 06:57:00,
2013-02-17 01:02:00,27.1,17.6,30.26,North,350,0.0,5.0,67,0.00,,,0.00,meteohub,2013-02-17 07:02:00,
2013-02-17 01:07:00,27.0,17.4,30.26,North,350,2.0,5.0,67,0.00,,,0.00,meteohub,2013-02-17 07:07:00,
2013-02-17 01:12:00,26.8,17.6,30.26,North,350,2.0,5.0,68,0.00,,,0.00,meteohub,2013-02-17 07:12:00,
2013-02-17 01:17:00,26.8,17.2,30.27,NNW,328,3.0,5.0,67,0.00,,,0.00,meteohub,2013-02-17 07:17:00,
2013-02-17 01:22:00,26.8,17.2,30.27,NNW,328,0.0,3.0,67,0.00,,,0.00,meteohub,2013-02-17 07:22:00,
2013-02-17 01:27:00,26.8,17.2,30.27,NNW,331,2.0,3.0,67,0.00,,,0.00,meteohub,2013-02-17 07:27:00,
2013-02-17 01:32:00,26.8,17.2,30.26,NNW,340,0.0,5.0,67,0.00,,,0.00,meteohub,2013-02-17 07:32:00,
2013-02-17 01:37:00,26.6,17.1,30.27,NNW,340,2.0,5.0,67,0.00,,,0.00,meteohub,2013-02-17 07:37:00,
2013-02-17 01:42:00,26.4,16.5,30.26,NNW,340,0.0,5.0,66,0.00,,,0.00,meteohub,2013-02-17 07:42:00,
2013-02-17 01:47:00,26.4,16.5,30.26,NNW,340,2.0,5.0,66,0.00,,,0.00,meteohub,2013-02-17 07:47:00,
2013-02-17 01:52:00,26.2,16.5,30.26,NNW,340,0.0,5.0,66,0.00,,,0.00,meteohub,2013-02-17 07:52:00,
2013-02-17 01:57:00,26.2,16.5,30.26,NNW,340,0.0,5.0,66,0.00,,,0.00,meteohub,2013-02-17 07:57:00,
2013-02-17 02:02:00,26.2,16.7,30.26,NNW,340,0.0,5.0,67,0.00,,,0.00,meteohub,2013-02-17 08:02:00,
2013-02-17 02:08:00,26.1,16.3,30.26,NNW,334,3.0,5.0,66,0.00,,,0.00,meteohub,2013-02-17 08:08:00,
2013-02-17 02:13:00,26.1,16.3,30.25,NNW,340,3.0,5.0,66,0.00,,,0.00,meteohub,2013-02-17 08:13:00,
2013-02-17 02:18:00,26.1,16.3,30.25,NNW,340,3.0,5.0,66,0.00,,,0.00,meteohub,2013-02-17 08:18:00,
2013-02-17 02:23:00,26.1,16.0,30.25,NNW,340,3.0,5.0,65,0.00,,,0.00,meteohub,2013-02-17 08:23:00,
2013-02-17 02:28:00,26.1,16.0,30.25,NNW,334,2.0,5.0,65,0.00,,,0.00,meteohub,2013-02-17 08:28:00,
2013-02-17 02:33:00,26.1,16.0,30.25,NNW,331,2.0,5.0,65,0.00,,,0.00,meteohub,2013-02-17 08:33:00,
2013-02-17 02:38:00,26.2,15.8,30.25,NNW,331,0.0,5.0,64,0.00,,,0.00,meteohub,2013-02-17 08:38:00,
2013-02-17 02:43:00,26.2,15.8,30.25,NNW,331,2.0,5.0,64,0.00,,,0.00,meteohub,2013-02-17 08:43:00,
2013-02-17 02:48:00,26.2,16.2,30.25,NNW,331,0.0,5.0,65,0.00,,,0.00,meteohub,2013-02-17 08:48:00,
2013-02-17 02:53:00,26.1,16.3,30.25,NNW,331,3.0,5.0,66,0.00,,,0.00,meteohub,2013-02-17 08:53:00,
2013-02-17 02:58:00,25.9,15.8,30.25,NW,304,3.0,3.0,65,0.00,,,0.00,meteohub,2013-02-17 08:58:00,
2013-02-17 03:03:00,25.7,16.0,30.25,NW,313,2.0,5.0,66,0.00,,,0.00,meteohub,2013-02-17 09:03:00,
2013-02-17 03:09:00,25.5,15.8,30.25,NW,309,0.0,5.0,66,0.00,,,0.00,meteohub,2013-02-17 09:09:00,
2013-02-17 03:14:00,25.3,15.3,30.26,NW,317,2.0,5.0,65,0.00,,,0.00,meteohub,2013-02-17 09:14:00,
2013-02-17 03:19:00,25.5,15.4,30.26,NW,321,2.0,5.0,65,0.00,,,0.00,meteohub,2013-02-17 09:19:00,
2013-02-17 03:24:00,25.9,15.8,30.26,NW,322,0.0,5.0,65,0.00,,,0.00,meteohub,2013-02-17 09:24:00,
2013-02-17 03:29:00,25.9,15.4,30.26,NW,322,2.0,5.0,64,0.00,,,0.00,meteohub,2013-02-17 09:29:00,
2013-02-17 03:34:00,25.7,15.3,30.27,NW,322,0.0,5.0,64,0.00,,,0.00,meteohub,2013-02-17 09:34:00,
2013-02-17 03:39:00,25.5,15.1,30.27,WNW,286,0.0,5.0,64,0.00,,,0.00,meteohub,2013-02-17 09:39:00,
2013-02-17 03:44:00,25.5,15.4,30.27,WSW,247,3.0,3.0,65,0.00,,,0.00,meteohub,2013-02-17 09:44:00,
2013-02-17 03:49:00,25.5,15.8,30.27,West,269,0.0,3.0,66,0.00,,,0.00,meteohub,2013-02-17 09:49:00,
2013-02-17 03:54:00,25.3,15.6,30.28,WNW,299,0.0,3.0,66,0.00,,,0.00,meteohub,2013-02-17 09:54:00,
2013-02-17 03:59:00,25.3,15.6,30.27,WNW,299,0.0,5.0,66,0.00,,,0.00,meteohub,2013-02-17 09:59:00,
2013-02-17 04:04:00,25.3,15.6,30.27,WNW,298,0.0,5.0,66,0.00,,,0.00,meteohub,2013-02-17 10:04:00,
2013-02-17 04:09:00,25.2,15.8,30.28,WSW,255,0.0,5.0,67,0.00,,,0.00,meteohub,2013-02-17 10:09:00,
2013-02-17 04:14:00,25.2,15.8,30.28,WSW,255,2.0,2.0,67,0.00,,,0.00,meteohub,2013-02-17 10:14:00,
2013-02-17 04:20:00,25.0,16.0,30.28,West,281,2.0,3.0,68,0.00,,,0.00,meteohub,2013-02-17 10:20:00,
2013-02-17 04:25:00,24.6,16.0,30.28,West,281,2.0,3.0,69,0.00,,,0.00,meteohub,2013-02-17 10:25:00,
2013-02-17 04:30:00,24.4,15.8,30.28,West,281,2.0,3.0,69,0.00,,,0.00,meteohub,2013-02-17 10:30:00,
2013-02-17 04:35:00,24.4,15.8,30.28,NW,306,0.0,3.0,69,0.00,,,0.00,meteohub,2013-02-17 10:35:00,
2013-02-17 04:40:00,24.4,16.0,30.28,West,272,0.0,3.0,70,0.00,,,0.00,meteohub,2013-02-17 10:40:00,
2013-02-17 04:45:00,24.4,16.0,30.28,WNW,301,2.0,3.0,70,0.00,,,0.00,meteohub,2013-02-17 10:45:00,
2013-02-17 04:50:00,24.4,15.8,30.28,NW,313,5.0,5.0,69,0.00,,,0.00,meteohub,2013-02-17 10:50:00,
2013-02-17 04:55:00,24.6,15.6,30.28,NW,323,3.0,5.0,68,0.00,,,0.00,meteohub,2013-02-17 10:55:00,
2013-02-17 05:00:00,24.8,15.4,30.28,NW,320,3.0,5.0,67,0.00,,,0.00,meteohub,2013-02-17 11:00:00,
2013-02-17 05:05:00,25.2,15.8,30.28,NW,315,2.0,5.0,67,0.00,,,0.00,meteohub,2013-02-17 11:05:00,
2013-02-17 05:10:00,25.2,15.4,30.28,NW,310,3.0,5.0,66,0.00,,,0.00,meteohub,2013-02-17 11:10:00,
2013-02-17 05:15:00,25.2,15.4,30.28,NW,310,2.0,5.0,66,0.00,,,0.00,meteohub,2013-02-17 11:15:00,
2013-02-17 05:20:00,25.2,15.4,30.28,NW,310,2.0,5.0,66,0.00,,,0.00,meteohub,2013-02-17 11:20:00,
2013-02-17 05:25:00,25.2,15.4,30.28,NW,316,2.0,3.0,66,0.00,,,0.00,meteohub,2013-02-17 11:25:00,
2013-02-17 05:30:00,25.2,15.4,30.29,NW,321,2.0,3.0,66,0.00,,,0.00,meteohub,2013-02-17 11:30:00,
2013-02-17 05:35:00,25.2,15.1,30.29,NW,311,2.0,5.0,65,0.00,,,0.00,meteohub,2013-02-17 11:35:00,
2013-02-17 05:40:00,25.3,15.3,30.29,NW,315,3.0,5.0,65,0.00,,,0.00,meteohub,2013-02-17 11:40:00,
2013-02-17 05:45:00,25.3,15.3,30.29,NW,315,2.0,5.0,65,0.00,,,0.00,meteohub,2013-02-17 11:45:00,
2013-02-17 05:51:00,25.3,15.3,30.30,NW,315,2.0,3.0,65,0.00,,,0.00,meteohub,2013-02-17 11:51:00,
2013-02-17 05:56:00,25.0,16.5,30.30,NW,315,2.0,3.0,70,0.00,,,0.00,meteohub,2013-02-17 11:56:00,
2013-02-17 06:01:00,24.3,16.2,30.30,West,263,2.0,3.0,71,0.00,,,0.00,meteohub,2013-02-17 12:01:00,
2013-02-17 06:06:00,23.9,15.8,30.30,West,263,2.0,3.0,71,0.00,,,0.00,meteohub,2013-02-17 12:06:00,
2013-02-17 06:11:00,23.7,15.1,30.30,West,263,0.0,3.0,69,0.00,,,0.00,meteohub,2013-02-17 12:11:00,
2013-02-17 06:16:00,23.7,15.4,30.30,WNW,286,2.0,3.0,70,0.00,,,0.00,meteohub,2013-02-17 12:16:00,
2013-02-17 06:21:00,24.1,15.8,30.30,NW,317,2.0,5.0,70,0.00,,,0.00,meteohub,2013-02-17 12:21:00,
2013-02-17 06:26:00,24.1,17.1,30.30,NW,317,0.0,5.0,74,0.00,,,0.00,meteohub,2013-02-17 12:26:00,
2013-02-17 06:31:00,23.7,17.2,30.30,NW,317,0.0,5.0,76,0.00,,,0.00,meteohub,2013-02-17 12:31:00,
2013-02-17 06:36:00,23.5,16.7,30.30,NW,317,0.0,3.0,75,0.00,,,0.00,meteohub,2013-02-17 12:36:00,
2013-02-17 06:41:00,23.7,17.2,30.31,NW,317,0.0,3.0,76,0.00,,,0.00,meteohub,2013-02-17 12:41:00,
2013-02-17 06:46:00,24.1,18.1,30.31,NW,317,0.0,3.0,78,0.00,,,0.00,meteohub,2013-02-17 12:46:00,
2013-02-17 06:51:00,24.4,18.0,30.31,NW,317,0.0,3.0,76,0.00,,,0.00,meteohub,2013-02-17 12:51:00,
2013-02-17 06:56:00,25.0,18.0,30.31,WNW,293,2.0,2.0,74,0.00,,,0.00,meteohub,2013-02-17 12:56:00,
2013-02-17 07:01:00,25.3,18.5,30.31,WNW,293,0.0,3.0,75,0.00,,,0.00,meteohub,2013-02-17 13:01:00,
2013-02-17 07:06:00,25.7,18.9,30.32,WNW,293,0.0,3.0,75,0.00,,,0.00,meteohub,2013-02-17 13:06:00,
2013-02-17 07:12:00,26.1,19.6,30.32,NW,306,0.0,3.0,76,0.00,,,0.00,meteohub,2013-02-17 13:12:00,
2013-02-17 07:17:00,26.2,18.9,30.32,NW,311,0.0,3.0,73,0.00,,,0.00,meteohub,2013-02-17 13:17:00,
2013-02-17 07:22:00,26.6,20.1,30.32,WSW,238,2.0,5.0,76,0.00,,,0.00,meteohub,2013-02-17 13:22:00,
2013-02-17 07:27:00,26.8,20.8,30.32,WSW,238,2.0,5.0,78,0.00,,,0.00,meteohub,2013-02-17 13:27:00,
2013-02-17 07:32:00,26.8,20.8,30.32,WSW,238,0.0,5.0,78,0.00,,,0.00,meteohub,2013-02-17 13:32:00,
2013-02-17 07:37:00,27.0,20.5,30.32,WSW,238,0.0,3.0,76,0.00,,,0.00,meteohub,2013-02-17 13:37:00,
2013-02-17 07:42:00,27.1,20.7,30.32,WSW,238,0.0,2.0,76,0.00,,,0.00,meteohub,2013-02-17 13:42:00,
2013-02-17 07:47:00,27.7,21.4,30.32,WSW,238,0.0,2.0,77,0.00,,,0.00,meteohub,2013-02-17 13:47:00,
2013-02-17 07:52:00,28.0,21.7,30.32,WSW,238,0.0,2.0,77,0.00,,,0.00,meteohub,2013-02-17 13:52:00,
2013-02-17 07:57:00,28.6,21.9,30.32,WSW,238,2.0,2.0,76,0.00,,,0.00,meteohub,2013-02-17 13:57:00,
2013-02-17 08:02:00,28.9,22.3,30.32,SSW,198,2.0,3.0,76,0.00,,,0.00,meteohub,2013-02-17 14:02:00,
2013-02-17 08:07:00,29.5,22.5,30.32,SSW,198,2.0,3.0,75,0.00,,,0.00,meteohub,2013-02-17 14:07:00,
2013-02-17 08:12:00,29.8,22.3,30.33,SSW,198,3.0,3.0,73,0.00,,,0.00,meteohub,2013-02-17 14:12:00,
2013-02-17 08:17:00,30.6,22.6,30.33,SSW,198,3.0,3.0,72,0.00,,,0.00,meteohub,2013-02-17 14:17:00,
2013-02-17 08:22:00,31.5,23.2,30.33,SSE,162,2.0,3.0,71,0.00,,,0.00,meteohub,2013-02-17 14:22:00,
2013-02-17 08:27:00,32.2,23.2,30.34,SSE,162,2.0,3.0,69,0.00,,,0.00,meteohub,2013-02-17 14:27:00,
2013-02-17 08:32:00,33.1,23.4,30.33,SSE,162,2.0,5.0,67,0.00,,,0.00,meteohub,2013-02-17 14:32:00,
2013-02-17 08:37:00,33.6,23.5,30.34,SSE,151,2.0,5.0,66,0.00,,,0.00,meteohub,2013-02-17 14:37:00,
2013-02-17 08:42:00,34.3,23.4,30.34,SSE,151,2.0,5.0,64,0.00,,,0.00,meteohub,2013-02-17 14:42:00,
2013-02-17 08:47:00,34.9,23.2,30.34,SSE,151,2.0,5.0,62,0.00,,,0.00,meteohub,2013-02-17 14:47:00,
2013-02-17 08:52:00,35.4,23.7,30.34,SSE,151,2.0,5.0,62,0.00,,,0.00,meteohub,2013-02-17 14:52:00,
2013-02-17 08:58:00,36.0,23.9,30.34,SSE,147,3.0,5.0,61,0.00,,,0.00,meteohub,2013-02-17 14:58:00,
2013-02-17 09:03:00,37.8,23.5,30.34,SE,142,3.0,6.0,56,0.00,,,0.00,meteohub,2013-02-17 15:03:00,
2013-02-17 09:08:00,38.5,22.5,30.35,SSE,156,2.0,6.0,52,0.00,,,0.00,meteohub,2013-02-17 15:08:00,
2013-02-17 09:13:00,39.0,21.6,30.35,SW,215,3.0,6.0,49,0.00,,,0.00,meteohub,2013-02-17 15:13:00,
2013-02-17 09:18:00,38.7,20.1,30.35,WSW,249,2.0,5.0,47,0.00,,,0.00,meteohub,2013-02-17 15:18:00,
2013-02-17 09:23:00,38.3,19.8,30.35,NW,313,0.0,5.0,47,0.00,,,0.00,meteohub,2013-02-17 15:23:00,
2013-02-17 09:28:00,39.4,21.7,30.35,WSW,237,6.0,6.0,49,0.00,,,0.00,meteohub,2013-02-17 15:28:00,
2013-02-17 09:33:00,39.7,16.9,30.35,SW,234,6.0,10.0,39,0.00,,,0.00,meteohub,2013-02-17 15:33:00,
2013-02-17 09:38:00,39.9,15.8,30.35,NNW,329,2.0,10.0,37,0.00,,,0.00,meteohub,2013-02-17 15:38:00,
2013-02-17 09:43:00,39.9,16.3,30.35,SSW,209,0.0,10.0,38,0.00,,,0.00,meteohub,2013-02-17 15:43:00,
2013-02-17 09:48:00,40.8,17.8,30.35,NNE,19,0.0,10.0,39,0.00,,,0.00,meteohub,2013-02-17 15:48:00,
2013-02-17 09:53:00,42.3,16.5,30.35,NNW,336,3.0,10.0,35,0.00,,,0.00,meteohub,2013-02-17 15:53:00,
2013-02-17 09:58:00,43.2,13.8,30.35,WNW,288,5.0,6.0,30,0.00,,,0.00,meteohub,2013-02-17 15:58:00,
2013-02-17 10:04:00,43.0,13.6,30.35,NNW,335,2.0,6.0,30,0.00,,,0.00,meteohub,2013-02-17 16:04:00,
2013-02-17 10:09:00,43.2,12.2,30.35,SW,232,5.0,10.0,28,0.00,,,0.00,meteohub,2013-02-17 16:09:00,
2013-02-17 10:14:00,43.0,12.0,30.35,NNW,327,0.0,10.0,28,0.00,,,0.00,meteohub,2013-02-17 16:14:00,
2013-02-17 10:19:00,43.2,12.2,30.35,WNW,286,5.0,8.0,28,0.00,,,0.00,meteohub,2013-02-17 16:19:00,
2013-02-17 10:24:00,42.8,12.7,30.35,NW,318,2.0,10.0,29,0.00,,,0.00,meteohub,2013-02-17 16:24:00,
2013-02-17 10:29:00,43.2,13.1,30.35,ESE,119,0.0,10.0,29,0.00,,,0.00,meteohub,2013-02-17 16:29:00,
2013-02-17 10:34:00,43.9,13.6,30.35,ESE,108,2.0,10.0,29,0.00,,,0.00,meteohub,2013-02-17 16:34:00,
2013-02-17 10:39:00,44.8,15.3,30.35,NNW,332,3.0,6.0,30,0.00,,,0.00,meteohub,2013-02-17 16:39:00,
2013-02-17 10:44:00,45.1,14.7,30.35,NNW,343,0.0,6.0,29,0.00,,,0.00,meteohub,2013-02-17 16:44:00,
2013-02-17 10:49:00,46.0,15.6,30.35,NE,40,5.0,6.0,29,0.00,,,0.00,meteohub,2013-02-17 16:49:00,
2013-02-17 10:54:00,45.7,12.7,30.34,NNE,30,2.0,6.0,26,0.00,,,0.00,meteohub,2013-02-17 16:54:00,
2013-02-17 10:59:00,45.3,12.4,30.34,WNW,285,2.0,6.0,26,0.00,,,0.00,meteohub,2013-02-17 16:59:00,
2013-02-17 11:04:00,44.4,14.2,30.34,NW,315,0.0,11.0,29,0.00,,,0.00,meteohub,2013-02-17 17:04:00,
2013-02-17 11:09:00,46.4,16.7,30.34,ESE,121,2.0,11.0,30,0.00,,,0.00,meteohub,2013-02-17 17:09:00,
2013-02-17 11:14:00,46.6,15.3,30.33,North,0,3.0,11.0,28,0.00,,,0.00,meteohub,2013-02-17 17:14:00,
2013-02-17 11:19:00,46.6,13.5,30.33,NE,42,5.0,8.0,26,0.00,,,0.00,meteohub,2013-02-17 17:19:00,
2013-02-17 11:24:00,46.2,17.2,30.33,SSE,157,2.0,8.0,31,0.00,,,0.00,meteohub,2013-02-17 17:24:00,
2013-02-17 11:30:00,46.9,16.3,30.33,ESE,107,3.0,11.0,29,0.00,,,0.00,meteohub,2013-02-17 17:30:00,
2013-02-17 11:35:00,47.3,15.8,30.32,South,190,0.0,11.0,28,0.00,,,0.00,meteohub,2013-02-17 17:35:00,
2013-02-17 11:40:00,47.1,15.6,30.32,ENE,64,0.0,11.0,28,0.00,,,0.00,meteohub,2013-02-17 17:40:00,
2013-02-17 11:45:00,46.8,16.2,30.32,NNW,331,0.0,13.0,29,0.00,,,0.00,meteohub,2013-02-17 17:45:00,
2013-02-17 11:50:00,47.5,16.0,30.32,NNE,32,0.0,13.0,28,0.00,,,0.00,meteohub,2013-02-17 17:50:00,
2013-02-17 11:55:00,48.7,17.1,30.32,ENE,75,3.0,13.0,28,0.00,,,0.00,meteohub,2013-02-17 17:55:00,
2013-02-17 12:00:00,48.6,16.2,30.32,ESE,113,0.0,8.0,27,0.00,,,0.00,meteohub,2013-02-17 18:00:00,
2013-02-17 12:05:00,49.3,15.8,30.32,WNW,288,2.0,8.0,26,0.00,,,0.00,meteohub,2013-02-17 18:05:00,
2013-02-17 12:10:00,49.1,14.7,30.31,West,265,5.0,13.0,25,0.00,,,0.00,meteohub,2013-02-17 18:10:00,
2013-02-17 12:16:00,48.7,16.2,30.31,WSW,248,10.0,14.0,27,0.00,,,0.00,meteohub,2013-02-17 18:16:00,
2013-02-17 12:21:00,49.6,17.8,30.30,SW,215,5.0,14.0,28,0.00,,,0.00,meteohub,2013-02-17 18:21:00,
2013-02-17 12:26:00,50.2,16.5,30.30,South,178,0.0,10.0,26,0.00,,,0.00,meteohub,2013-02-17 18:26:00,
2013-02-17 12:31:00,50.5,16.9,30.30,SSE,148,2.0,14.0,26,0.00,,,0.00,meteohub,2013-02-17 18:31:00,
2013-02-17 12:36:00,50.5,15.1,30.30,ENE,73,2.0,14.0,24,0.00,,,0.00,meteohub,2013-02-17 18:36:00,
2013-02-17 12:41:00,50.4,14.9,30.30,SSW,199,3.0,14.0,24,0.00,,,0.00,meteohub,2013-02-17 18:41:00,
2013-02-17 12:46:00,49.6,15.3,30.30,SW,236,6.0,8.0,25,0.00,,,0.00,meteohub,2013-02-17 18:46:00,
2013-02-17 12:51:00,49.3,14.9,30.30,SW,221,10.0,14.0,25,0.00,,,0.00,meteohub,2013-02-17 18:51:00,
2013-02-17 12:56:00,48.7,16.2,30.29,West,269,2.0,14.0,27,0.00,,,0.00,meteohub,2013-02-17 18:56:00,
2013-02-17 13:01:00,49.1,15.6,30.29,NW,319,5.0,14.0,26,0.00,,,0.00,meteohub,2013-02-17 19:01:00,
2013-02-17 13:06:00,49.3,15.8,30.29,North,355,2.0,18.0,26,0.00,,,0.00,meteohub,2013-02-17 19:06:00,
2013-02-17 13:11:00,49.5,16.0,30.29,ESE,105,2.0,18.0,26,0.00,,,0.00,meteohub,2013-02-17 19:11:00,
2013-02-17 13:16:00,49.6,15.3,30.29,SSW,213,6.0,18.0,25,0.00,,,0.00,meteohub,2013-02-17 19:16:00,
2013-02-17 13:21:00,49.6,15.3,30.28,NE,49,2.0,16.0,25,0.00,,,0.00,meteohub,2013-02-17 19:21:00,
2013-02-17 13:26:00,49.8,15.4,30.28,SSW,213,5.0,11.0,25,0.00,,,0.00,meteohub,2013-02-17 19:26:00,
2013-02-17 13:32:00,49.8,15.4,30.28,WNW,300,3.0,11.0,25,0.00,,,0.00,meteohub,2013-02-17 19:32:00,
2013-02-17 13:37:00,50.4,15.8,30.28,SSW,210,3.0,10.0,25,0.00,,,0.00,meteohub,2013-02-17 19:37:00,
2013-02-17 13:42:00,50.0,15.6,30.28,NE,38,2.0,11.0,25,0.00,,,0.00,meteohub,2013-02-17 19:42:00,
2013-02-17 13:47:00,50.4,14.9,30.28,WSW,242,8.0,13.0,24,0.00,,,0.00,meteohub,2013-02-17 19:47:00,
2013-02-17 13:52:00,50.2,14.7,30.27,SW,219,3.0,13.0,24,0.00,,,0.00,meteohub,2013-02-17 19:52:00,
2013-02-17 13:57:00,49.8,15.4,30.27,ENE,59,2.0,13.0,25,0.00,,,0.00,meteohub,2013-02-17 19:57:00,
2013-02-17 14:02:00,50.0,15.6,30.27,SW,220,5.0,11.0,25,0.00,,,0.00,meteohub,2013-02-17 20:02:00,
2013-02-17 14:07:00,50.2,15.6,30.27,SW,227,5.0,11.0,25,0.00,,,0.00,meteohub,2013-02-17 20:07:00,
2013-02-17 14:12:00,50.2,17.4,30.27,ESE,122,0.0,19.0,27,0.00,,,0.00,meteohub,2013-02-17 20:12:00,
2013-02-17 14:17:00,50.4,14.9,30.27,NW,321,2.0,19.0,24,0.00,,,0.00,meteohub,2013-02-17 20:17:00,
2013-02-17 14:22:00,50.5,16.9,30.27,NW,307,5.0,18.0,26,0.00,,,0.00,meteohub,2013-02-17 20:22:00,
2013-02-17 14:27:00,50.5,16.0,30.27,ENE,74,0.0,6.0,25,0.00,,,0.00,meteohub,2013-02-17 20:27:00,
2013-02-17 14:32:00,50.4,15.8,30.26,SSW,211,3.0,6.0,25,0.00,,,0.00,meteohub,2013-02-17 20:32:00,
2013-02-17 14:37:00,50.4,16.7,30.26,ESE,120,2.0,8.0,26,0.00,,,0.00,meteohub,2013-02-17 20:37:00,
2013-02-17 14:42:00,49.6,17.1,30.26,South,186,0.0,8.0,27,0.00,,,0.00,meteohub,2013-02-17 20:42:00,
2013-02-17 14:47:00,49.6,16.2,30.26,SSW,211,3.0,10.0,26,0.00,,,0.00,meteohub,2013-02-17 20:47:00,
2013-02-17 14:52:00,49.8,16.3,30.26,South,190,6.0,10.0,26,0.00,,,0.00,meteohub,2013-02-17 20:52:00,
2013-02-17 14:58:00,50.0,17.2,30.26,East,80,2.0,10.0,27,0.00,,,0.00,meteohub,2013-02-17 20:58:00,
2013-02-17 15:03:00,50.2,17.4,30.26,SSE,155,5.0,10.0,27,0.00,,,0.00,meteohub,2013-02-17 21:03:00,
2013-02-17 15:08:00,50.4,17.6,30.26,SW,223,6.0,8.0,27,0.00,,,0.00,meteohub,2013-02-17 21:08:00,
2013-02-17 15:13:00,50.5,16.0,30.26,SSW,192,0.0,8.0,25,0.00,,,0.00,meteohub,2013-02-17 21:13:00,
2013-02-17 15:18:00,50.5,18.7,30.26,North,355,3.0,11.0,28,0.00,,,0.00,meteohub,2013-02-17 21:18:00,
2013-02-17 15:23:00,50.4,16.7,30.26,SW,229,5.0,11.0,26,0.00,,,0.00,meteohub,2013-02-17 21:23:00,
2013-02-17 15:28:00,50.4,17.6,30.26,WSW,250,2.0,11.0,27,0.00,,,0.00,meteohub,2013-02-17 21:28:00,
2013-02-17 15:33:00,50.4,17.6,30.26,SSW,196,2.0,11.0,27,0.00,,,0.00,meteohub,2013-02-17 21:33:00,
2013-02-17 15:38:00,49.8,16.3,30.25,SE,144,2.0,11.0,26,0.00,,,0.00,meteohub,2013-02-17 21:38:00,
2013-02-17 15:43:00,49.1,15.6,30.26,SW,214,5.0,11.0,26,0.00,,,0.00,meteohub,2013-02-17 21:43:00,
2013-02-17 15:48:00,48.6,16.9,30.26,WSW,242,2.0,6.0,28,0.00,,,0.00,meteohub,2013-02-17 21:48:00,
2013-02-17 15:53:00,48.6,16.9,30.26,NNW,342,6.0,6.0,28,0.00,,,0.00,meteohub,2013-02-17 21:53:00,
2013-02-17 15:58:00,48.4,16.7,30.26,WNW,294,3.0,10.0,28,0.00,,,0.00,meteohub,2013-02-17 21:58:00,
2013-02-17 16:03:00,48.2,17.4,30.25,West,281,0.0,10.0,29,0.00,,,0.00,meteohub,2013-02-17 22:03:00,
2013-02-17 16:08:00,48.0,17.2,30.25,WNW,303,2.0,13.0,29,0.00,,,0.00,meteohub,2013-02-17 22:08:00,
2013-02-17 16:14:00,47.8,18.0,30.25,SSW,202,2.0,13.0,30,0.00,,,0.00,meteohub,2013-02-17 22:14:00,
2013-02-17 16:19:00,47.7,17.8,30.25,SW,234,5.0,13.0,30,0.00,,,0.00,meteohub,2013-02-17 22:19:00,
2013-02-17 16:24:00,47.5,16.9,30.25,North,355,0.0,10.0,29,0.00,,,0.00,meteohub,2013-02-17 22:24:00,
2013-02-17 16:29:00,47.5,16.9,30.25,WNW,284,2.0,10.0,29,0.00,,,0.00,meteohub,2013-02-17 22:29:00,
2013-02-17 16:34:00,47.3,16.7,30.25,SW,221,0.0,10.0,29,0.00,,,0.00,meteohub,2013-02-17 22:34:00,
2013-02-17 16:39:00,47.1,16.5,30.25,SSE,153,2.0,8.0,29,0.00,,,0.00,meteohub,2013-02-17 22:39:00,
2013-02-17 16:44:00,46.9,17.1,30.25,WSW,239,5.0,8.0,30,0.00,,,0.00,meteohub,2013-02-17 22:44:00,
2013-02-17 16:49:00,46.9,16.3,30.25,SW,234,3.0,10.0,29,0.00,,,0.00,meteohub,2013-02-17 22:49:00,
2013-02-17 16:54:00,46.8,16.2,30.25,SW,218,2.0,10.0,29,0.00,,,0.00,meteohub,2013-02-17 22:54:00,
2013-02-17 16:59:00,46.8,16.2,30.26,SW,225,0.0,10.0,29,0.00,,,0.00,meteohub,2013-02-17 22:59:00,
2013-02-17 17:05:00,46.6,16.9,30.25,SW,231,2.0,8.0,30,0.00,,,0.00,meteohub,2013-02-17 23:05:00,
2013-02-17 17:10:00,46.2,15.6,30.25,SSE,161,2.0,6.0,29,0.00,,,0.00,meteohub,2013-02-17 23:10:00,
2013-02-17 17:15:00,46.0,15.6,30.25,SSE,161,0.0,6.0,29,0.00,,,0.00,meteohub,2013-02-17 23:15:00,
2013-02-17 17:20:00,46.0,17.1,30.25,WSW,240,0.0,5.0,31,0.00,,,0.00,meteohub,2013-02-17 23:20:00,
2013-02-17 17:25:00,45.9,16.9,30.25,SW,219,3.0,5.0,31,0.00,,,0.00,meteohub,2013-02-17 23:25:00,
2013-02-17 17:30:00,45.7,16.7,30.25,SW,226,0.0,5.0,31,0.00,,,0.00,meteohub,2013-02-17 23:30:00,
2013-02-17 17:35:00,45.3,16.5,30.25,SW,226,2.0,5.0,31,0.00,,,0.00,meteohub,2013-02-17 23:35:00,
2013-02-17 17:40:00,45.1,17.8,30.25,SW,226,2.0,3.0,33,0.00,,,0.00,meteohub,2013-02-17 23:40:00,
2013-02-17 17:45:00,44.8,17.4,30.25,SW,226,0.0,3.0,33,0.00,,,0.00,meteohub,2013-02-17 23:45:00,
2013-02-17 17:50:00,44.6,18.0,30.25,SW,226,2.0,3.0,34,0.00,,,0.00,meteohub,2013-02-17 23:50:00,
2013-02-17 17:55:00,44.4,16.3,30.25,SW,227,0.0,3.0,32,0.00,,,0.00,meteohub,2013-02-17 23:55:00,
2013-02-17 18:00:00,44.4,17.1,30.26,SW,227,0.0,3.0,33,0.00,,,0.00,meteohub,2013-02-18 00:00:00,
2013-02-17 18:06:00,44.2,16.9,30.26,SW,227,0.0,3.0,33,0.00,,,0.00,meteohub,2013-02-18 00:06:00,
2013-02-17 18:11:00,44.1,16.7,30.26,SW,227,0.0,5.0,33,0.00,,,0.00,meteohub,2013-02-18 00:11:00,
2013-02-17 18:16:00,43.9,16.7,30.26,SW,227,0.0,5.0,33,0.00,,,0.00,meteohub,2013-02-18 00:16:00,
2013-02-17 18:21:00,43.9,16.7,30.26,SW,227,2.0,5.0,33,0.00,,,0.00,meteohub,2013-02-18 00:21:00,
2013-02-17 18:26:00,43.7,17.2,30.26,SW,227,2.0,3.0,34,0.00,,,0.00,meteohub,2013-02-18 00:26:00,
2013-02-17 18:31:00,43.5,17.1,30.26,SW,227,2.0,3.0,34,0.00,,,0.00,meteohub,2013-02-18 00:31:00,
2013-02-17 18:36:00,43.5,17.1,30.27,SW,230,3.0,3.0,34,0.00,,,0.00,meteohub,2013-02-18 00:36:00,
2013-02-17 18:41:00,43.3,17.6,30.27,SW,230,0.0,3.0,35,0.00,,,0.00,meteohub,2013-02-18 00:41:00,
2013-02-17 18:46:00,43.2,16.7,30.27,SW,230,0.0,3.0,34,0.00,,,0.00,meteohub,2013-02-18 00:46:00,
2013-02-17 18:51:00,43.2,16.7,30.27,SW,230,2.0,3.0,34,0.00,,,0.00,meteohub,2013-02-18 00:51:00,
2013-02-17 18:56:00,43.0,16.5,30.27,SW,230,0.0,3.0,34,0.00,,,0.00,meteohub,2013-02-18 00:56:00,
2013-02-17 19:01:00,43.0,16.5,30.27,SW,230,0.0,3.0,34,0.00,,,0.00,meteohub,2013-02-18 01:01:00,
2013-02-17 19:06:00,42.6,16.2,30.27,SW,230,2.0,3.0,34,0.00,,,0.00,meteohub,2013-02-18 01:06:00,
2013-02-17 19:12:00,42.4,16.7,30.27,SW,230,2.0,3.0,35,0.00,,,0.00,meteohub,2013-02-18 01:12:00,
2013-02-17 19:17:00,42.4,16.7,30.27,SW,230,2.0,3.0,35,0.00,,,0.00,meteohub,2013-02-18 01:17:00,
2013-02-17 19:22:00,42.3,16.5,30.27,SW,235,2.0,3.0,35,0.00,,,0.00,meteohub,2013-02-18 01:22:00,
2013-02-17 19:27:00,42.1,17.6,30.27,SW,235,0.0,5.0,37,0.00,,,0.00,meteohub,2013-02-18 01:27:00,
2013-02-17 19:32:00,41.7,16.7,30.27,SW,235,3.0,5.0,36,0.00,,,0.00,meteohub,2013-02-18 01:32:00,
2013-02-17 19:37:00,41.4,17.6,30.27,SW,215,2.0,5.0,38,0.00,,,0.00,meteohub,2013-02-18 01:37:00,
2013-02-17 19:42:00,41.2,17.4,30.28,SW,215,3.0,5.0,38,0.00,,,0.00,meteohub,2013-02-18 01:42:00,
2013-02-17 19:47:00,41.0,17.4,30.28,SW,220,3.0,5.0,38,0.00,,,0.00,meteohub,2013-02-18 01:47:00,
2013-02-17 19:52:00,40.8,17.8,30.28,WSW,237,2.0,5.0,39,0.00,,,0.00,meteohub,2013-02-18 01:52:00,
2013-02-17 19:57:00,40.8,17.2,30.28,WSW,237,3.0,5.0,38,0.00,,,0.00,meteohub,2013-02-18 01:57:00,
2013-02-17 20:02:00,40.8,17.2,30.28,WSW,238,2.0,5.0,38,0.00,,,0.00,meteohub,2013-02-18 02:02:00,
2013-02-17 20:07:00,40.6,17.1,30.28,WSW,243,2.0,5.0,38,0.00,,,0.00,meteohub,2013-02-18 02:07:00,
2013-02-17 20:12:00,40.6,17.1,30.28,SSW,207,3.0,5.0,38,0.00,,,0.00,meteohub,2013-02-18 02:12:00,
2013-02-17 20:17:00,40.6,17.6,30.28,SW,236,2.0,5.0,39,0.00,,,0.00,meteohub,2013-02-18 02:17:00,
2013-02-17 20:22:00,40.5,16.9,30.28,SW,235,0.0,5.0,38,0.00,,,0.00,meteohub,2013-02-18 02:22:00,
2013-02-17 20:27:00,40.3,18.5,30.28,SW,235,3.0,5.0,41,0.00,,,0.00,meteohub,2013-02-18 02:27:00,
2013-02-17 20:32:00,40.3,17.2,30.28,SW,236,0.0,5.0,39,0.00,,,0.00,meteohub,2013-02-18 02:32:00,
2013-02-17 20:37:00,40.1,17.1,30.28,SW,236,2.0,3.0,39,0.00,,,0.00,meteohub,2013-02-18 02:37:00,
2013-02-17 20:42:00,40.1,17.1,30.29,West,260,3.0,3.0,39,0.00,,,0.00,meteohub,2013-02-18 02:42:00,
2013-02-17 20:47:00,40.1,16.5,30.29,SW,220,0.0,5.0,38,0.00,,,0.00,meteohub,2013-02-18 02:47:00,
2013-02-17 20:52:00,39.9,16.9,30.29,SW,225,5.0,5.0,39,0.00,,,0.00,meteohub,2013-02-18 02:52:00,
2013-02-17 20:57:00,39.9,16.9,30.29,SW,225,2.0,6.0,39,0.00,,,0.00,meteohub,2013-02-18 02:57:00,
2013-02-17 21:02:00,39.7,16.9,30.29,SW,227,3.0,6.0,39,0.00,,,0.00,meteohub,2013-02-18 03:02:00,
2013-02-17 21:08:00,39.7,16.2,30.29,SW,225,2.0,6.0,38,0.00,,,0.00,meteohub,2013-02-18 03:08:00,
2013-02-17 21:13:00,39.9,16.3,30.29,SW,225,0.0,5.0,38,0.00,,,0.00,meteohub,2013-02-18 03:13:00,
2013-02-17 21:18:00,39.9,16.3,30.29,SW,225,2.0,5.0,38,0.00,,,0.00,meteohub,2013-02-18 03:18:00,
2013-02-17 21:23:00,39.7,16.9,30.29,SW,225,3.0,3.0,39,0.00,,,0.00,meteohub,2013-02-18 03:23:00,
2013-02-17 21:28:00,39.7,16.2,30.29,SW,225,3.0,3.0,38,0.00,,,0.00,meteohub,2013-02-18 03:28:00,
2013-02-17 21:33:00,39.9,15.8,30.29,SW,231,3.0,5.0,37,0.00,,,0.00,meteohub,2013-02-18 03:33:00,
2013-02-17 21:38:00,39.9,16.3,30.29,SW,219,3.0,5.0,38,0.00,,,0.00,meteohub,2013-02-18 03:38:00,
2013-02-17 21:43:00,39.9,16.3,30.29,WSW,243,3.0,5.0,38,0.00,,,0.00,meteohub,2013-02-18 03:43:00,
2013-02-17 21:48:00,39.7,16.2,30.29,WSW,253,2.0,5.0,38,0.00,,,0.00,meteohub,2013-02-18 03:48:00,
2013-02-17 21:53:00,39.7,16.2,30.29,WSW,241,2.0,5.0,38,0.00,,,0.00,meteohub,2013-02-18 03:53:00,
2013-02-17 21:58:00,39.7,16.9,30.30,WSW,242,2.0,5.0,39,0.00,,,0.00,meteohub,2013-02-18 03:58:00,
2013-02-17 22:03:00,39.6,16.7,30.30,WSW,242,2.0,5.0,39,0.00,,,0.00,meteohub,2013-02-18 04:03:00,
2013-02-17 22:08:00,39.6,16.7,30.29,WSW,242,0.0,5.0,39,0.00,,,0.00,meteohub,2013-02-18 04:08:00,
2013-02-17 22:13:00,39.6,16.7,30.29,WSW,247,0.0,5.0,39,0.00,,,0.00,meteohub,2013-02-18 04:13:00,
2013-02-17 22:19:00,39.6,16.7,30.29,WSW,257,2.0,5.0,39,0.00,,,0.00,meteohub,2013-02-18 04:19:00,
2013-02-17 22:24:00,39.6,16.7,30.29,WSW,244,3.0,5.0,39,0.00,,,0.00,meteohub,2013-02-18 04:24:00,
2013-02-17 22:29:00,39.4,17.6,30.29,WSW,246,2.0,5.0,41,0.00,,,0.00,meteohub,2013-02-18 04:29:00,
2013-02-17 22:34:00,39.4,17.6,30.29,WSW,246,3.0,5.0,41,0.00,,,0.00,meteohub,2013-02-18 04:34:00,
2013-02-17 22:39:00,39.2,16.9,30.29,WSW,240,2.0,5.0,40,0.00,,,0.00,meteohub,2013-02-18 04:39:00,
2013-02-17 22:44:00,39.2,16.9,30.29,SW,230,2.0,5.0,40,0.00,,,0.00,meteohub,2013-02-18 04:44:00,
2013-02-17 22:49:00,39.2,17.4,30.29,WSW,240,2.0,5.0,41,0.00,,,0.00,meteohub,2013-02-18 04:49:00,
2013-02-17 22:54:00,39.2,16.9,30.29,WSW,240,2.0,6.0,40,0.00,,,0.00,meteohub,2013-02-18 04:54:00,
2013-02-17 22:59:00,39.2,17.4,30.29,WSW,238,0.0,6.0,41,0.00,,,0.00,meteohub,2013-02-18 04:59:00,
2013-02-17 23:00:00,39.2,16.9,30.29,WSW,238,3.0,6.0,40,0.00,,,0.00,meteohub,2013-02-18 05:00:00,
2013-02-17 23:05:00,39.2,16.9,30.28,WSW,238,3.0,5.0,40,0.00,,,0.00,meteohub,2013-02-18 05:05:00,
2013-02-17 23:10:00,39.2,16.9,30.29,SSW,211,5.0,6.0,40,0.00,,,0.00,meteohub,2013-02-18 05:10:00,
2013-02-17 23:15:00,39.2,17.4,30.29,SW,229,2.0,6.0,41,0.00,,,0.00,meteohub,2013-02-18 05:15:00,
2013-02-17 23:20:00,39.2,17.4,30.29,SW,229,3.0,6.0,41,0.00,,,0.00,meteohub,2013-02-18 05:20:00,
2013-02-17 23:25:00,39.0,17.2,30.29,SW,229,0.0,5.0,41,0.00,,,0.00,meteohub,2013-02-18 05:25:00,
2013-02-17 23:31:00,39.0,17.8,30.29,SW,229,3.0,3.0,42,0.00,,,0.00,meteohub,2013-02-18 05:31:00,
2013-02-17 23:36:00,39.0,17.2,30.29,SW,229,0.0,3.0,41,0.00,,,0.00,meteohub,2013-02-18 05:36:00,
2013-02-17 23:41:00,38.8,17.8,30.29,SW,229,0.0,3.0,42,0.00,,,0.00,meteohub,2013-02-18 05:41:00,
2013-02-17 23:46:00,38.8,18.3,30.29,SW,229,0.0,3.0,43,0.00,,,0.00,meteohub,2013-02-18 05:46:00,
2013-02-17 23:51:00,38.7,18.1,30.29,SW,229,0.0,2.0,43,0.00,,,0.00,meteohub,2013-02-18 05:51:00,
2013-02-17 23:56:00,38.7,17.6,30.29,SW,229,2.0,2.0,42,0.00,,,0.00,meteohub,2013-02-18 05:56:00,